Location: Stara Lesna
(49.1528°N, 20.2911°E)
Time: 08:50:31
(UTC+02:00)

Helios 1B rocket - Pass Details

Date: 13 July 2020
Orbit: 574 x 584 km, 98.1° (Epoch: 05 August)

Event Time Altitude Azimuth Distance (km) Brightness Sun altitude
Rises 00:44:45 0° 20° (NNE) 2,811 7.2 -19.1°
Reaches altitude 10° 00:47:03 10° 29° (NNE) 1,904 6.0 -19.1°
Maximum altitude 00:50:53 37° 98° (E) 909 3.3 -19.0°
Enters shadow 00:51:52 32° 130° (SE) 1,003 3.3 -19.0°
